Regional Weather Roundup
Issued by NWS

Home | Current Version | Previous Version | Text Only | Print | Product List | Glossary Off
Versions: 1 2 3 4 5 6 7 8 9 10 11 12 13 14 15 16 17 18 19 20 21 22 23 24 25 26 27 28 29 30 31 32 33 34 35 36 37 38 39 40 41 42 43 44 45 46 47 48 49 50

000
ASUS43 KMPX 132310
RWRMN
WEATHER ROUNDUP FOR MINNESOTA
NATIONAL WEATHER SERVICE TWIN CITIES/CHANHASSEN MN
600 PM CDT SUN JUL 13 2014


NOTE: "FAIR" INDICATES FEW OR NO CLOUDS BELOW 12,000 FEET WITH NO
SIGNIFICANT WEATHER AND/OR OBSTRUCTIONS TO VISIBILITY. N/A MEANS
CURRENT SKY AND/OR WEATHER CONDITIONS ARE NOT AVAILABLE.

MNZ060>063-068>070-140000-
   Twin Cities Metro

CITY           SKY/WX    TMP DP  RH WIND       PRES   REMARKS
TWIN CITIES    MOSUNNY   76  51  41 NW13      29.89S
ST PAUL        MOSUNNY   75  51  43 W14       29.89F
CRYSTAL        MOSUNNY   77  49  37 W14G22    29.88F
BLAINE         MOSUNNY   75  48  38 W14       29.89F
LAKEVILLE      SUNNY     73  54  49 W9G20     29.90F
EDEN PRAIRIE   MOSUNNY   77  51  40 NW12      29.89F
SOUTH ST PAUL  PTSUNNY   76  49  39 NW9       29.89S
LAKE ELMO      PTSUNNY   72  52  49 W9        29.90S
$$
MNZ001>005-007-008-013>017-022>024-027-028-140000-
   Northwest Minnesota

CITY           SKY/WX    TMP DP  RH WIND       PRES   REMARKS
BEMIDJI        CLOUDY    64  47  55 NW13      29.88F
HALLOCK        MOSUNNY   63  48  59 NW17      29.91R
ROSEAU         PTSUNNY   59  52  77 NW16G24   29.88R
WARROAD        PTSUNNY   55  52  88 W15       29.87S
THIEF RVR FALL PTSUNNY   61  50  67 NW15      29.91R
CROOKSTON      PTSUNNY   66  48  52 NW20G28   29.92R
FOSSTON        PTSUNNY   64  46  52 NW15G23   29.90F
DETROIT LAKES  SUNNY     68  46  45 NW16G23   29.92S
MOORHEAD       MOSUNNY   72  37  28 NW18G29   29.92R
PARK RAPIDS    CLOUDY    67  46  47 NW17      29.89S
$$
MNZ006-009>011-018-025>026-140000-
   North Central Minnesota

CITY           SKY/WX    TMP DP  RH WIND       PRES   REMARKS
BAUDETTE       CLOUDY    58  52  80 NW9       29.86S
FLAG ISLAND    LGT RAIN  55  52  88 W15       29.82S
INTL FALLS     LGT RAIN  55  51  86 W12       29.83S
WASKISH        CLOUDY    55  52  88 NW10G17   29.88S
BIG FORK       MOSUNNY   63  46  55 W5G18     29.86S
LONGVILLE      CLOUDY    66  48  52 W9G17     29.88S
GRAND RAPIDS   CLOUDY    64  46  52 NW18G25   29.87R
CRANE LAKE     CLOUDY    55  52  88 NW7       29.85R
ORR            CLOUDY    57  50  77 NW9       29.82S
COOK           LGT RAIN  57  54  88 NW8       29.85R
$$
MNZ012-019>021-037-140000-
   Northeast Minnesota

CITY           SKY/WX    TMP DP  RH WIND       PRES   REMARKS
DULUTH         PTSUNNY   67  45  45 W13G25    29.84S
ELY            PTSUNNY   57  52  82 W8        29.82R
HIBBING        LGT RAIN  61  51  70 W7G23     29.84S
EVELETH        CLOUDY    64  46  52 W9G16     29.84F
DULUTH HARBOR  PTSUNNY   72  50  46 W15       29.83S
TWO HARBORS    PTSUNNY   68  48  49 W9G20     29.80F
SILVER BAY     SUNNY     66  52  59 SW6       29.79F
GRAND MARAIS     N/A     48  44  86 W5        29.78S
G MARAIS ARPRT MOSUNNY   61  48  63 W8        29.80F
$$
MNZ029>031-032-039>041-046>048-054>057-064-140000-
   West Central Minnesota

CITY           SKY/WX    TMP DP  RH WIND       PRES   REMARKS
FERGUS FALLS   MOSUNNY   72  37  28 NW20G26   29.90F
WHEATON        SUNNY     72  45  37 W14G20    29.95S
MORRIS         SUNNY     73  45  35 NW15G23   29.92F
ALEXANDRIA     SUNNY     73  42  32 NW17G26   29.93F
ELBOW LAKE     FAIR      72  45  37 NW16G24   29.92S
WADENA         MOSUNNY   68  46  45 NW13G20   29.90S
GLENWOOD       MOSUNNY   73  43  33 W17       29.93S
APPLETON       SUNNY     77  43  29 NW15G21   29.93F
BENSON         SUNNY     75  43  31 N16G26    29.93S
ORTONVILLE     SUNNY     75  43  31 NW14      29.94F
MADISON        SUNNY     79  46  31 NW12      29.95S
WILLMAR        FAIR      75  37  25 NW18      29.94S
$$
MNZ033>034-036-042>043-049>051-058-059-140000-
   Central Minnesota

CITY           SKY/WX    TMP DP  RH WIND       PRES   REMARKS
ST CLOUD       MOSUNNY   76  45  33 NW15      29.89F
SAUK CENTRE    FAIR      73  43  34 W12G20    29.91F
PAYNESVILLE    SUNNY     70  44  39 SW12G17   29.92F HAZE
AITKIN         PTSUNNY   70  48  46 W3        29.86F
PINE RIVER     PTSUNNY   68  48  49 NW10G16   29.91F
BRAINERD       CLOUDY    75  45  34 W12       29.88F
STAPLES        CLOUDY    70  45  40 NW12      29.90S
LONG PRAIRIE   FAIR      72  45  37 W12       29.91F
LITTLE FALLS   MOSUNNY   72  41  33 W12G17    29.90S
LITCHFIELD     SUNNY     75  43  31 NW13G20   29.93S
BUFFALO        MOSUNNY   75  45  35 W12G21    29.91S
MAPLE LAKE     SUNNY     74  50  42 NW12G20   29.92R
$$
MNZ037-044-045-052-053-140000-
   East Central Minnesota

CITY           SKY/WX    TMP DP  RH WIND       PRES   REMARKS
PRINCETON      SUNNY     73  46  38 W10G20    29.90S
MORA           MOSUNNY   70  45  40 NW7       29.90S
CAMBRIDGE      MOSUNNY   75  54  46 W10G17    29.88S
RUSH CITY      PTSUNNY   73  49  42 W12G17    29.89S
MOOSE LAKE     CLOUDY    68  46  45 W7        29.85S
HINCKLEY       CLOUDY    72  46  40 W9G21     29.88S
CLOQUET        CLOUDY    66  45  45 W6        29.86R
MCGREGOR       CLOUDY    68  46  45 W10G16    29.87F
$$
MNZ071>073-080-081-089-090-097-098-140000-
   Southwest Minnesota

CITY           SKY/WX    TMP DP  RH WIND       PRES   REMARKS
MONTEVIDEO     SUNNY     77  45  31 NW10G20   29.95S
GRANITE FALLS  SUNNY     76  46  34 W12       29.95S
CANBY          SUNNY     78  44  29 NW14G22   29.97S
MARSHALL       MOSUNNY   77  50  38 N14G21    29.94S
REDWOOD FALLS  SUNNY     78  47  33 NW16G24   29.93S
OLIVIA         MOSUNNY   73  43  33 NW14G24   29.93S
PIPESTONE      SUNNY     79  54  41 NW15G21   29.97F
WINDOM         MOSUNNY   79  54  41 NW14G22   29.95F
WORTHINGTON    SUNNY     79  55  44 W15       29.97F
JACKSON        SUNNY     79  55  44 NW12      29.95F
TRACY          SUNNY     77  54  45 NW14      29.96S
SLAYTON        MOSUNNY   76  53  45 NW10G20   29.97F
$$
MNZ065>067-074>077-082>085-091>093-140000-
   South Central Minnesota

CITY           SKY/WX    TMP DP  RH WIND       PRES   REMARKS
MANKATO        MOSUNNY   77  45  31 W16G25    29.92S
NEW ULM        SUNNY     75  50  41 NW17      29.93S
ST JAMES       SUNNY     79  52  38 NW13G20   29.94S
FAIRMONT       MOSUNNY   79  54  41 NW14G20   29.93F
GLENCOE        SUNNY     76  48  36 NW15G21   29.91S
FARIBAULT      MOSUNNY   79  50  36 W8        29.92F
OWATONNA       SUNNY     77  54  44 W10G17    29.92F
WASECA         PTSUNNY   77  52  41 W10       29.94F
ALBERT LEA     MOSUNNY   79  55  44 W7        29.93F
$$
MNZ078>079-086>088-094>096-140000-
   Southeast Minnesota

CITY           SKY/WX    TMP DP  RH WIND       PRES   REMARKS
ROCHESTER      SUNNY     74  53  48 NW9       29.94F
RED WING       SUNNY     79  48  34 W12       29.88F
STANTON        MOSUNNY   77  51  39 W14       29.90S
DODGE CENTER   SUNNY     75  54  46 NW12      29.93F
WINONA         SUNNY     77  50  38 NW10G17   29.92S
AUSTIN         SUNNY     79  52  38 NW9G18    29.93F
PRESTON        SUNNY     74  56  51 NW13      29.94S
$$
ABBREVIATIONS USED IN REMARKS
   TC - TEMPERATURES IN CELSIUS
  WCI - WIND CHILL INDEX
   HX - HEAT INDEX
  VSB - VISIBILITY
$$



USA.gov is the U.S. government's official web portal to all federal, state and local government web resources and services.